Date String (YYYY-MM-DD hh:mm:ss) UTC,Instrument flags,Ambient pressure (hPa),Sample flow (lpm),Bypass flow (lpm),Sample temperature (°C),Ambient temperature (°C),ASC tube jacket temperature (°C),LED temperature (°C),Box temperature (°C),Sample RH (%),Span deviation,Mass concentration (μg/m³),Mass concentration (μg/m³),Mass concentration (μg/m³)
DateTimeUTC,F1_M11,P_M11,Q1_M11,Q2_M11,T1_M11,T2_M11,T3_M11,T4_M11,T5_M11,U1_M11,ZSPAN_M11,X0_M11,X2_M11,X1_M11
2021-09-21 05:00:00,,0836.5,5.00,0.00,30.1,29.2,00.0,39.2,31.8,19.1,0000.0,0008.07,0003.19,0002.36
2021-09-21 05:01:00,,0836.5,5.00,0.00,30.1,29.2,00.0,39.2,31.9,19.1,0000.0,0008.30,0003.16,0002.34
2021-09-21 05:02:00,,0836.6,5.02,0.00,30.1,29.2,00.0,39.2,31.9,19.3,0000.0,0007.98,0003.14,0002.32
2021-09-21 05:03:00,,0836.7,5.00,0.00,30.1,29.2,00.0,39.2,31.8,19.2,0000.0,0008.31,0003.12,0002.32
2021-09-21 05:04:00,,0836.6,4.98,0.00,30.1,29.2,00.0,39.2,31.8,19.2,0000.0,0008.51,0003.15,0002.35
2021-09-21 05:05:00,,0836.6,5.00,0.00,30.1,29.2,00.0,39.2,31.9,19.2,0000.0,0008.85,0003.18,0002.36
2021-09-21 05:06:00,,0836.6,5.00,0.00,30.1,29.2,00.0,39.2,31.9,19.0,0000.0,0009.23,0003.16,0002.34
2021-09-21 05:07:00,,0836.7,5.00,0.00,30.1,29.2,00.0,39.2,31.9,18.6,0000.0,0008.84,0003.09,0002.29
2021-09-21 05:08:00,,0836.7,5.01,0.00,30.1,29.2,00.0,39.2,31.9,18.3,0000.0,0008.20,0002.96,0002.23
2021-09-21 05:09:00,,0836.7,5.00,0.00,30.1,29.2,00.0,39.2,31.8,18.4,0000.0,0008.39,0002.91,0002.19
2021-09-21 05:10:00,,0836.7,5.01,0.00,30.1,29.2,00.0,39.2,31.9,18.4,0000.0,0008.67,0002.83,0002.13
2021-09-21 05:11:00,,0836.7,4.99,0.00,30.1,29.2,00.0,39.2,31.8,18.3,0000.0,0008.70,0002.79,0002.09
2021-09-21 05:12:00,,0836.7,5.00,0.00,30.1,29.2,00.0,39.2,31.8,18.2,0000.0,0008.31,0002.78,0002.07
2021-09-21 05:13:00,,0836.7,5.01,0.00,30.1,29.2,00.0,39.2,31.8,18.3,0000.0,0008.02,0002.74,0002.03
2021-09-21 05:14:00,,0836.7,4.99,0.00,30.1,29.2,00.0,39.2,31.8,18.2,0000.0,0007.53,0002.62,0001.96
2021-09-21 05:15:00,,0836.7,5.01,0.00,30.1,29.2,00.0,39.2,31.8,18.3,0000.0,0007.21,0002.50,0001.87
2021-09-21 05:16:00,,0836.7,4.99,0.00,30.0,29.1,00.0,39.2,31.8,18.4,0000.0,0006.75,0002.41,0001.80
2021-09-21 05:17:00,,0836.7,4.99,0.00,30.0,29.1,00.0,39.2,31.7,18.4,0000.0,0005.97,0002.32,0001.75
2021-09-21 05:18:00,,0836.7,5.01,0.00,30.0,29.1,00.0,39.2,31.8,18.4,0000.0,0005.30,0002.28,0001.73
2021-09-21 05:19:00,,0836.7,4.99,0.00,30.0,29.1,00.0,39.2,31.7,18.2,0000.0,0005.32,0002.27,0001.72
2021-09-21 05:20:00,,0836.7,5.00,0.00,30.0,29.1,00.0,39.2,31.7,18.1,0000.0,0005.08,0002.27,0001.71
2021-09-21 05:21:00,,0836.7,5.00,0.00,30.0,29.1,00.0,39.2,31.7,18.1,0000.0,0004.24,0002.25,0001.70
2021-09-21 05:22:00,,0836.7,5.01,0.00,30.0,29.1,00.0,39.2,31.7,18.3,0000.0,0004.25,0002.22,0001.68
2021-09-21 05:23:00,,0836.7,5.00,0.00,30.0,29.1,00.0,39.1,31.7,18.4,0000.0,0004.62,0002.19,0001.66
2021-09-21 05:24:00,,0836.8,4.98,0.00,30.0,29.1,00.0,39.1,31.7,18.6,0000.0,0004.54,0002.18,0001.64
2021-09-21 05:25:00,,0836.8,5.01,0.00,29.9,29.1,00.0,39.1,31.7,18.8,0000.0,0004.63,0002.19,0001.64
2021-09-21 05:26:00,,0836.9,5.01,0.00,30.0,29.1,00.0,39.1,31.7,18.8,0000.0,0005.10,0002.20,0001.63
2021-09-21 05:27:00,,0836.9,5.00,0.00,30.0,29.1,00.0,39.1,31.7,18.9,0000.0,0005.24,0002.19,0001.64
2021-09-21 05:28:00,,0836.9,5.00,0.00,30.0,29.1,00.0,39.1,31.7,19.0,0000.0,0005.09,0002.16,0001.64
2021-09-21 05:29:00,,0836.8,5.01,0.00,30.0,29.1,00.0,39.1,31.7,19.0,0000.0,0004.99,0002.18,0001.65
2021-09-21 05:30:00,,0836.9,5.00,0.00,30.0,29.1,00.0,39.1,31.7,19.0,0000.0,0005.09,0002.18,0001.67
2021-09-21 05:31:00,,0836.9,4.98,0.00,30.0,29.1,00.0,39.1,31.7,19.0,0000.0,0005.38,0002.19,0001.67
2021-09-21 05:32:00,,0836.9,5.01,0.00,30.0,29.1,00.0,39.1,31.7,18.8,0000.0,0005.31,0002.20,0001.69
2021-09-21 05:33:00,,0837.0,5.01,0.00,30.0,29.1,00.0,39.1,31.7,18.8,0000.0,0005.13,0002.23,0001.71
2021-09-21 05:34:00,,0836.9,5.00,0.00,30.0,29.1,00.0,39.1,31.7,18.7,0000.0,0004.68,0002.22,0001.73
2021-09-21 05:35:00,,0837.0,5.00,0.00,30.0,29.1,00.0,39.1,31.7,18.9,0000.0,0005.27,0002.19,0001.74
2021-09-21 05:36:00,,0837.0,5.02,0.00,30.0,29.1,00.0,39.1,31.7,18.8,0000.0,0005.23,0002.17,0001.74
2021-09-21 05:37:00,,0837.0,5.00,0.00,29.9,29.1,00.0,39.1,31.7,18.6,0000.0,0005.00,0002.15,0001.75
2021-09-21 05:38:00,,0837.0,4.99,0.00,29.9,29.1,00.0,39.1,31.7,18.4,0000.0,0004.76,0002.14,0001.74
2021-09-21 05:39:00,,0837.0,5.01,0.00,29.9,29.0,00.0,39.1,31.7,18.1,0000.0,0004.93,0002.15,0001.75
2021-09-21 05:40:00,,0837.0,5.01,0.00,29.9,29.0,00.0,39.1,31.6,17.8,0000.0,0004.94,0002.14,0001.74
2021-09-21 05:41:00,,0837.0,4.99,0.00,29.9,29.0,00.0,39.1,31.6,17.8,0000.0,0004.92,0002.14,0001.72
2021-09-21 05:42:00,,0837.0,4.99,0.00,29.9,29.0,00.0,39.1,31.6,17.7,0000.0,0004.79,0002.17,0001.72
2021-09-21 05:43:00,,0837.1,5.00,0.00,29.9,29.0,00.0,39.1,31.6,17.5,0000.0,0004.79,0002.17,0001.71
2021-09-21 05:44:00,,0837.0,5.00,0.00,29.9,29.0,00.0,39.1,31.6,17.7,0000.0,0004.79,0002.17,0001.71
2021-09-21 05:45:00,,0837.1,5.00,0.00,29.9,29.1,00.0,39.0,31.7,17.6,0000.0,0004.67,0002.17,0001.71
2021-09-21 05:46:00,,0837.1,4.99,0.00,29.9,29.0,00.0,39.1,31.6,17.6,0000.0,0004.27,0002.17,0001.72
2021-09-21 05:47:00,,0837.1,5.01,0.00,29.9,29.1,00.0,39.0,31.7,17.4,0000.0,0005.90,0002.16,0001.71
2021-09-21 05:48:00,,0837.0,5.00,0.00,29.9,29.1,00.0,39.1,31.6,17.4,0000.0,0005.78,0002.13,0001.70
2021-09-21 05:49:00,,0837.1,5.00,0.00,29.9,29.1,00.0,39.1,31.7,17.4,0000.0,0006.95,0002.13,0001.70
2021-09-21 05:50:00,,0837.1,4.99,0.00,29.9,29.1,00.0,39.1,31.7,17.5,0000.0,0007.07,0002.11,0001.70
2021-09-21 05:51:00,,0837.1,5.00,0.00,29.9,29.1,00.0,39.1,31.7,17.5,0000.0,0006.90,0002.07,0001.69
2021-09-21 05:52:00,,0837.1,5.01,0.00,29.9,29.1,00.0,39.1,31.7,17.3,0000.0,0006.80,0002.05,0001.69
2021-09-21 05:53:00,,0837.2,5.00,0.00,30.0,29.1,00.0,39.1,31.7,17.3,0000.0,0006.57,0002.01,0001.69
2021-09-21 05:54:00,,0837.1,5.01,0.00,29.9,29.1,00.0,39.1,31.7,17.3,0000.0,0006.59,0002.00,0001.68
2021-09-21 05:55:00,,0837.2,4.99,0.00,29.9,29.1,00.0,39.1,31.7,17.2,0000.0,0006.61,0001.98,0001.65
2021-09-21 05:56:00,,0837.1,4.99,0.00,30.0,29.1,00.0,39.1,31.7,17.2,0000.0,0006.55,0001.96,0001.63
2021-09-21 05:57:00,,0837.2,5.00,0.00,29.9,29.1,00.0,39.1,31.7,17.5,0000.0,0006.40,0001.93,0001.61
2021-09-21 05:58:00,,0837.2,4.99,0.00,29.9,29.1,00.0,39.1,31.7,17.5,0000.0,0004.94,0001.93,0001.60
2021-09-21 05:59:00,,0837.2,4.99,0.00,29.9,29.1,00.0,39.0,31.7,17.5,0000.0,0004.37,0001.92,0001.59
